Location: Radomski Observatory
(40.2854°N, 79.5145°W)
Time: 01:36:29
(UTC-04:00)

Cosmos 1072 Rocket - Visible Passes

Search period start: 26 September 2017 00:00
Search period end: 06 October 2017 00:00
Orbit: 948 x 1010 km, 82.9° (Epoch: 25 September)

Date Brightness Start Highest point End Pass type
(mag) Time Alt. Az. Time Alt. Az. Time Alt. Az.
26 Sep 7.1 02:03:14 12° NNE 02:03:14 12° NNE 02:03:38 10° NNE visible
27 Sep 7.1 02:29:35 12° N 02:29:35 12° N 02:30:01 10° N visible
28 Sep 7.1 02:55:57 10° N 02:55:57 10° N 02:56:01 10° N visible
